Year,Month,Day,Hour,Minute,Value (Times are PST for temperature in C)
2009,07,02,00,00,14.20
2009,07,02,00,01,14.20
2009,07,02,00,02,14.20
2009,07,02,00,03,14.20
2009,07,02,00,04,14.10
2009,07,02,00,05,14.10
2009,07,02,00,06,14.10
2009,07,02,00,07,14.10
2009,07,02,00,08,14.10
2009,07,02,00,09,14.10
2009,07,02,00,10,14.10
2009,07,02,00,11,14.10
2009,07,02,00,12,14.10
2009,07,02,00,13,14.10
2009,07,02,00,14,14.10
2009,07,02,00,15,14.10
2009,07,02,00,16,14.10
2009,07,02,00,17,14.10
2009,07,02,00,18,14.00
2009,07,02,00,19,14.00
2009,07,02,00,20,14.00
2009,07,02,00,21,13.90
2009,07,02,00,22,13.90
2009,07,02,00,23,13.90
2009,07,02,00,24,13.80
2009,07,02,00,25,13.80
2009,07,02,00,26,13.70
2009,07,02,00,27,13.70
2009,07,02,00,28,13.70
2009,07,02,00,29,13.60
2009,07,02,00,30,13.60
2009,07,02,00,31,13.60
2009,07,02,00,32,13.50
2009,07,02,00,33,13.50
2009,07,02,00,34,13.50
2009,07,02,00,35,13.50
2009,07,02,00,36,13.40
2009,07,02,00,37,13.40
2009,07,02,00,38,13.40
2009,07,02,00,39,13.40
2009,07,02,00,40,13.40
2009,07,02,00,41,13.40
2009,07,02,00,42,13.40
2009,07,02,00,43,13.40
2009,07,02,00,44,13.40
2009,07,02,00,45,13.30
2009,07,02,00,46,13.30
2009,07,02,00,47,13.30
2009,07,02,00,48,13.30
2009,07,02,00,49,13.20
2009,07,02,00,50,13.20
2009,07,02,00,51,13.20
2009,07,02,00,52,13.20
2009,07,02,00,53,13.10
2009,07,02,00,54,13.10
2009,07,02,00,55,13.10
2009,07,02,00,56,13.10
2009,07,02,00,57,13.00
2009,07,02,00,58,13.00
2009,07,02,00,59,12.90
2009,07,02,01,00,12.90
2009,07,02,01,01,12.90
2009,07,02,01,02,12.90
2009,07,02,01,03,12.80
2009,07,02,01,04,12.80
2009,07,02,01,05,12.80
2009,07,02,01,06,12.80
2009,07,02,01,07,12.80
2009,07,02,01,08,12.80
2009,07,02,01,09,12.90
2009,07,02,01,10,12.90
2009,07,02,01,11,12.90
2009,07,02,01,12,12.90
2009,07,02,01,13,12.90
2009,07,02,01,14,12.90
2009,07,02,01,15,12.80
2009,07,02,01,16,12.80
2009,07,02,01,17,12.80
2009,07,02,01,18,12.80
2009,07,02,01,19,12.80
2009,07,02,01,20,12.80
2009,07,02,01,21,12.80
2009,07,02,01,22,12.80
2009,07,02,01,23,12.80
2009,07,02,01,24,12.80
2009,07,02,01,25,12.80
2009,07,02,01,26,12.80
2009,07,02,01,27,12.90
2009,07,02,01,28,12.90
2009,07,02,01,29,12.80
2009,07,02,01,30,12.80
2009,07,02,01,31,12.80
2009,07,02,01,32,12.80
2009,07,02,01,33,12.80
2009,07,02,01,34,12.80
2009,07,02,01,35,12.80
2009,07,02,01,36,12.80
2009,07,02,01,37,12.80
2009,07,02,01,38,12.80
2009,07,02,01,39,12.80
2009,07,02,01,40,12.70
2009,07,02,01,41,12.70
2009,07,02,01,42,12.70
2009,07,02,01,43,12.70
2009,07,02,01,44,12.70
2009,07,02,01,45,12.70
2009,07,02,01,46,12.70
2009,07,02,01,47,12.70
2009,07,02,01,48,12.70
2009,07,02,01,49,12.70
2009,07,02,01,50,12.70
2009,07,02,01,51,12.70
2009,07,02,01,52,12.60
2009,07,02,01,53,12.60
2009,07,02,01,54,12.60
2009,07,02,01,55,12.60
2009,07,02,01,56,12.50
2009,07,02,01,57,12.50
2009,07,02,01,58,12.50
2009,07,02,01,59,12.40
2009,07,02,02,00,12.40
2009,07,02,02,01,12.40
2009,07,02,02,02,12.30
2009,07,02,02,03,12.30
2009,07,02,02,04,12.30
2009,07,02,02,05,12.20
2009,07,02,02,06,12.20
2009,07,02,02,07,12.20
2009,07,02,02,08,12.20
2009,07,02,02,09,12.10
2009,07,02,02,10,12.10
2009,07,02,02,11,12.10
2009,07,02,02,12,12.10
2009,07,02,02,13,12.00
2009,07,02,02,14,12.00
2009,07,02,02,15,12.00
2009,07,02,02,16,11.90
2009,07,02,02,17,11.90
2009,07,02,02,18,11.90
2009,07,02,02,19,11.90
2009,07,02,02,20,11.90
2009,07,02,02,21,11.90
2009,07,02,02,22,11.90
2009,07,02,02,23,11.90
2009,07,02,02,24,11.90
2009,07,02,02,25,11.80
2009,07,02,02,26,11.80
2009,07,02,02,27,11.80
2009,07,02,02,28,11.80
2009,07,02,02,29,11.80
2009,07,02,02,30,11.70
2009,07,02,02,31,11.70
2009,07,02,02,32,11.70
2009,07,02,02,33,11.70
2009,07,02,02,34,11.70
2009,07,02,02,35,11.70
2009,07,02,02,36,11.70
2009,07,02,02,37,11.70
2009,07,02,02,38,11.70
2009,07,02,02,39,11.70
2009,07,02,02,40,11.70
2009,07,02,02,41,11.70
2009,07,02,02,42,11.60
2009,07,02,02,43,11.60
2009,07,02,02,44,11.60
2009,07,02,02,45,11.60
2009,07,02,02,46,11.60
2009,07,02,02,47,11.50
2009,07,02,02,48,11.50
2009,07,02,02,49,11.50
2009,07,02,02,50,11.40
2009,07,02,02,51,11.40
2009,07,02,02,52,11.40
2009,07,02,02,53,11.40
2009,07,02,02,54,11.40
2009,07,02,02,55,11.40
2009,07,02,02,56,11.30
2009,07,02,02,57,11.30
2009,07,02,02,58,11.30
2009,07,02,02,59,11.30
2009,07,02,03,00,11.30
2009,07,02,03,01,11.20
2009,07,02,03,02,11.20
2009,07,02,03,03,11.20
2009,07,02,03,04,11.20
2009,07,02,03,05,11.10
2009,07,02,03,06,11.10
2009,07,02,03,07,11.10
2009,07,02,03,08,11.10
2009,07,02,03,09,11.10
2009,07,02,03,10,11.10
2009,07,02,03,11,11.10
2009,07,02,03,12,11.10
2009,07,02,03,13,11.00
2009,07,02,03,14,11.00
2009,07,02,03,15,11.00
2009,07,02,03,16,11.00
2009,07,02,03,17,10.90
2009,07,02,03,18,10.90
2009,07,02,03,19,10.90
2009,07,02,03,20,10.90
2009,07,02,03,21,10.90
2009,07,02,03,22,10.90
2009,07,02,03,23,10.90
2009,07,02,03,24,10.90
2009,07,02,03,25,10.90
2009,07,02,03,26,10.90
2009,07,02,03,27,10.90
2009,07,02,03,28,10.90
2009,07,02,03,29,10.90
2009,07,02,03,30,10.90
2009,07,02,03,31,10.90
2009,07,02,03,32,10.90
2009,07,02,03,33,10.90
2009,07,02,03,34,10.80
2009,07,02,03,35,10.80
2009,07,02,03,36,10.80
2009,07,02,03,37,10.80
2009,07,02,03,38,10.80
2009,07,02,03,39,10.80
2009,07,02,03,40,10.80
2009,07,02,03,41,10.70
2009,07,02,03,42,10.70
2009,07,02,03,43,10.70
2009,07,02,03,44,10.70
2009,07,02,03,45,10.70
2009,07,02,03,46,10.70
2009,07,02,03,47,10.70
2009,07,02,03,48,10.70
2009,07,02,03,49,10.70
2009,07,02,03,50,10.70
2009,07,02,03,51,10.70
2009,07,02,03,52,10.80
2009,07,02,03,53,10.70
2009,07,02,03,54,10.70
2009,07,02,03,55,10.70
2009,07,02,03,56,10.70
2009,07,02,03,57,10.70
2009,07,02,03,58,10.70
2009,07,02,03,59,10.70
2009,07,02,04,00,10.60
2009,07,02,04,01,10.60
2009,07,02,04,02,10.60
2009,07,02,04,03,10.60
2009,07,02,04,05,10.60
2009,07,02,04,06,10.50
2009,07,02,04,07,10.50
2009,07,02,04,08,10.50
2009,07,02,04,09,10.40
2009,07,02,04,10,10.40
2009,07,02,04,11,10.40
2009,07,02,04,12,10.30
2009,07,02,04,13,10.30
2009,07,02,04,14,10.30
2009,07,02,04,15,10.30
2009,07,02,04,16,10.30
2009,07,02,04,17,10.30
2009,07,02,04,18,10.30
2009,07,02,04,19,10.20
2009,07,02,04,20,10.20
2009,07,02,04,21,10.20
2009,07,02,04,22,10.20
2009,07,02,04,23,10.20
2009,07,02,04,24,10.20
2009,07,02,04,25,10.20
2009,07,02,04,26,10.20
2009,07,02,04,27,10.20
2009,07,02,04,28,10.20
2009,07,02,04,29,10.20
2009,07,02,04,30,10.20
2009,07,02,04,31,10.10
2009,07,02,04,32,10.10
2009,07,02,04,33,10.10
2009,07,02,04,34,10.10
2009,07,02,04,35,10.10
2009,07,02,04,36,10.10
2009,07,02,04,37,10.10
2009,07,02,04,38,10.10
2009,07,02,04,39,10.10
2009,07,02,04,40,10.10
2009,07,02,04,41,10.10
2009,07,02,04,42,10.10
2009,07,02,04,43,10.10
2009,07,02,04,44,10.10
2009,07,02,04,45,10.00
2009,07,02,04,46,10.00
2009,07,02,04,47,10.00
2009,07,02,04,48,10.00
2009,07,02,04,49,10.00
2009,07,02,04,50,9.90
2009,07,02,04,51,9.90
2009,07,02,04,52,9.90
2009,07,02,04,53,9.90
2009,07,02,04,54,9.90
2009,07,02,04,55,9.90
2009,07,02,04,56,9.90
2009,07,02,04,57,9.90
2009,07,02,04,58,9.90
2009,07,02,04,59,9.90
2009,07,02,05,00,9.90
2009,07,02,05,01,9.90
2009,07,02,05,02,9.90
2009,07,02,05,03,9.90
2009,07,02,05,04,9.90
2009,07,02,05,05,9.90
2009,07,02,05,06,9.90
2009,07,02,05,07,9.90
2009,07,02,05,08,9.90
2009,07,02,05,09,9.90
2009,07,02,05,10,9.90
2009,07,02,05,11,9.90
2009,07,02,05,12,9.90
2009,07,02,05,13,9.90
2009,07,02,05,14,9.90
2009,07,02,05,15,9.90
2009,07,02,05,16,9.90
2009,07,02,05,17,9.90
2009,07,02,05,18,9.90
2009,07,02,05,19,9.80
2009,07,02,05,20,9.80
2009,07,02,05,21,9.80
2009,07,02,05,22,9.80
2009,07,02,05,23,9.80
2009,07,02,05,24,9.80
2009,07,02,05,25,9.80
2009,07,02,05,26,9.80
2009,07,02,05,27,9.90
2009,07,02,05,28,9.90
2009,07,02,05,29,9.90
2009,07,02,05,30,9.90
2009,07,02,05,31,9.90
2009,07,02,05,32,9.90
2009,07,02,05,33,9.90
2009,07,02,05,34,9.90
2009,07,02,05,35,9.90
2009,07,02,05,36,9.90
2009,07,02,05,37,9.90
2009,07,02,05,38,9.90
2009,07,02,05,39,9.90
2009,07,02,05,40,9.90
2009,07,02,05,41,9.90
2009,07,02,05,42,9.90
2009,07,02,05,43,9.90
2009,07,02,05,44,9.90
2009,07,02,05,45,9.90
2009,07,02,05,46,9.90
2009,07,02,05,47,9.90
2009,07,02,05,48,9.90
2009,07,02,05,49,9.90
2009,07,02,05,50,10.00
2009,07,02,05,51,10.00
2009,07,02,05,52,10.00
2009,07,02,05,53,10.10
2009,07,02,05,54,10.10
2009,07,02,05,55,10.20
2009,07,02,05,56,10.20
2009,07,02,05,57,10.20
2009,07,02,05,58,10.20
2009,07,02,05,59,10.20
2009,07,02,06,00,10.30
2009,07,02,06,01,10.30
2009,07,02,06,02,10.30
2009,07,02,06,03,10.30
2009,07,02,06,04,10.30
2009,07,02,06,05,10.40
2009,07,02,06,06,10.40
2009,07,02,06,07,10.40
2009,07,02,06,08,10.40
2009,07,02,06,09,10.50
2009,07,02,06,10,10.50
2009,07,02,06,11,10.50
2009,07,02,06,12,10.60
2009,07,02,06,13,10.60
2009,07,02,06,14,10.60
2009,07,02,06,15,10.60
2009,07,02,06,16,10.60
2009,07,02,06,17,10.60
2009,07,02,06,18,10.60
2009,07,02,06,19,10.70
2009,07,02,06,20,10.70
2009,07,02,06,21,10.70
2009,07,02,06,22,10.70
2009,07,02,06,23,10.70
2009,07,02,06,24,10.70
2009,07,02,06,25,10.80
2009,07,02,06,26,10.80
2009,07,02,06,27,10.80
2009,07,02,06,28,10.80
2009,07,02,06,29,10.80
2009,07,02,06,30,10.80
2009,07,02,06,31,10.90
2009,07,02,06,32,10.90
2009,07,02,06,33,10.90
2009,07,02,06,34,10.90
2009,07,02,06,35,11.00
2009,07,02,06,36,11.00
2009,07,02,06,37,11.00
2009,07,02,06,38,11.10
2009,07,02,06,39,11.10
2009,07,02,06,40,11.10
2009,07,02,06,41,11.10
2009,07,02,06,42,11.20
2009,07,02,06,43,11.20
2009,07,02,06,44,11.20
2009,07,02,06,45,11.20
2009,07,02,06,46,11.30
2009,07,02,06,47,11.30
2009,07,02,06,48,11.30
2009,07,02,06,49,11.30
2009,07,02,06,50,11.30
2009,07,02,06,51,11.40
2009,07,02,06,52,11.40
2009,07,02,06,53,11.40
2009,07,02,06,54,11.40
2009,07,02,06,55,11.50
2009,07,02,06,56,11.50
2009,07,02,06,57,11.50
2009,07,02,06,58,11.60
2009,07,02,06,59,11.60
2009,07,02,07,00,11.60
2009,07,02,07,01,11.60
2009,07,02,07,02,11.60
2009,07,02,07,03,11.70
2009,07,02,07,04,11.70
2009,07,02,07,05,11.70
2009,07,02,07,06,11.80
2009,07,02,07,07,11.80
2009,07,02,07,08,11.80
2009,07,02,07,09,11.80
2009,07,02,07,10,11.90
2009,07,02,07,11,11.90
2009,07,02,07,12,12.00
2009,07,02,07,13,12.00
2009,07,02,07,14,12.10
2009,07,02,07,15,12.10
2009,07,02,07,16,12.20
2009,07,02,07,17,12.20
2009,07,02,07,18,12.20
2009,07,02,07,19,12.20
2009,07,02,07,20,12.20
2009,07,02,07,21,12.30
2009,07,02,07,22,12.30
2009,07,02,07,23,12.30
2009,07,02,07,24,12.40
2009,07,02,07,25,12.40
2009,07,02,07,26,12.50
2009,07,02,07,27,12.50
2009,07,02,07,28,12.60
2009,07,02,07,29,12.60
2009,07,02,07,30,12.70
2009,07,02,07,31,12.70
2009,07,02,07,32,12.80
2009,07,02,07,33,12.80
2009,07,02,07,34,12.90
2009,07,02,07,35,12.90
2009,07,02,07,36,13.00
2009,07,02,07,37,13.10
2009,07,02,07,38,13.10
2009,07,02,07,39,13.10
2009,07,02,07,40,13.20
2009,07,02,07,41,13.30
2009,07,02,07,42,13.30
2009,07,02,07,43,13.40
2009,07,02,07,44,13.50
2009,07,02,07,45,13.50
2009,07,02,07,46,13.60
2009,07,02,07,47,13.70
2009,07,02,07,48,13.80
2009,07,02,07,49,13.80
2009,07,02,07,50,14.00
2009,07,02,07,51,14.10
2009,07,02,07,52,14.20
2009,07,02,07,53,14.30
2009,07,02,07,54,14.40
2009,07,02,07,55,14.50
2009,07,02,07,56,14.60
2009,07,02,07,57,14.70
2009,07,02,07,58,14.90
2009,07,02,07,59,15.00
2009,07,02,08,00,15.00
2009,07,02,08,01,15.00
2009,07,02,08,02,15.20
2009,07,02,08,03,15.30
2009,07,02,08,04,15.40
2009,07,02,08,05,15.50
2009,07,02,08,06,15.60
2009,07,02,08,07,15.70
2009,07,02,08,08,15.80
2009,07,02,08,09,15.80
2009,07,02,08,10,15.90
2009,07,02,08,11,16.00
2009,07,02,08,12,16.10
2009,07,02,08,13,16.10
2009,07,02,08,14,16.20
2009,07,02,08,15,16.30
2009,07,02,08,16,16.40
2009,07,02,08,17,16.40
2009,07,02,08,18,16.50
2009,07,02,08,19,16.60
2009,07,02,08,20,16.70
2009,07,02,08,21,16.80
2009,07,02,08,22,16.80
2009,07,02,08,23,16.90
2009,07,02,08,24,17.00
2009,07,02,08,25,17.10
2009,07,02,08,26,17.10
2009,07,02,08,27,17.20
2009,07,02,08,28,17.20
2009,07,02,08,29,17.30
2009,07,02,08,30,17.40
2009,07,02,08,31,17.50
2009,07,02,08,32,17.60
2009,07,02,08,33,17.70
2009,07,02,08,34,17.80
2009,07,02,08,35,17.80
2009,07,02,08,36,18.00
2009,07,02,08,37,18.00
2009,07,02,08,38,18.10
2009,07,02,08,39,18.20
2009,07,02,08,40,18.30
2009,07,02,08,41,18.40
2009,07,02,08,42,18.50
2009,07,02,08,43,18.60
2009,07,02,08,44,18.70
2009,07,02,08,45,18.80
2009,07,02,08,46,18.90
2009,07,02,08,47,19.00
2009,07,02,08,48,19.10
2009,07,02,08,49,19.20
2009,07,02,08,50,19.30
2009,07,02,08,51,19.40
2009,07,02,08,52,19.50
2009,07,02,08,53,19.60
2009,07,02,08,54,19.70
2009,07,02,08,55,19.80
2009,07,02,08,56,19.80
2009,07,02,08,57,19.80
2009,07,02,08,58,19.90
2009,07,02,08,59,19.90
2009,07,02,09,00,20.00
2009,07,02,09,01,20.00
2009,07,02,09,02,20.10
2009,07,02,09,03,20.10
2009,07,02,09,04,20.20
2009,07,02,09,05,20.20
2009,07,02,09,06,20.30
2009,07,02,09,07,20.40
2009,07,02,09,08,20.50
2009,07,02,09,09,20.60
2009,07,02,09,10,20.60
2009,07,02,09,11,20.70
2009,07,02,09,12,20.70
2009,07,02,09,13,20.80
2009,07,02,09,14,20.90
2009,07,02,09,15,21.00
2009,07,02,09,16,21.10
2009,07,02,09,17,21.20
2009,07,02,09,18,21.30
2009,07,02,09,19,21.30
2009,07,02,09,20,21.40
2009,07,02,09,21,21.50
2009,07,02,09,22,21.60
2009,07,02,09,23,21.60
2009,07,02,09,24,21.60
2009,07,02,09,25,21.60
2009,07,02,09,26,21.60
2009,07,02,09,27,21.60
2009,07,02,09,28,21.50
2009,07,02,09,29,21.50
2009,07,02,09,30,21.40
2009,07,02,09,31,21.40
2009,07,02,09,32,21.40
2009,07,02,09,33,21.40
2009,07,02,09,34,21.40
2009,07,02,09,35,21.40
2009,07,02,09,36,21.50
2009,07,02,09,37,21.60
2009,07,02,09,38,21.70
2009,07,02,09,39,21.80
2009,07,02,09,40,21.90
2009,07,02,09,41,21.90
2009,07,02,09,42,21.90
2009,07,02,09,43,21.90
2009,07,02,09,44,22.00
2009,07,02,09,45,21.90
2009,07,02,09,46,21.90
2009,07,02,09,47,21.80
2009,07,02,09,48,21.80
2009,07,02,09,49,21.80
2009,07,02,09,50,21.70
2009,07,02,09,51,21.70
2009,07,02,09,52,21.80
2009,07,02,09,53,21.80
2009,07,02,09,54,21.80
2009,07,02,09,55,21.90
2009,07,02,09,56,21.90
2009,07,02,09,57,21.80
2009,07,02,09,58,21.80
2009,07,02,09,59,21.80
2009,07,02,10,00,21.80
2009,07,02,10,01,21.80
2009,07,02,10,02,21.90
2009,07,02,10,03,22.00
2009,07,02,10,04,22.10
2009,07,02,10,05,22.20
2009,07,02,10,06,22.20
2009,07,02,10,07,22.30
2009,07,02,10,08,22.40
2009,07,02,10,09,22.40
2009,07,02,10,10,22.40
2009,07,02,10,11,22.40
2009,07,02,10,12,22.50
2009,07,02,10,13,22.50
2009,07,02,10,14,22.50
2009,07,02,10,15,22.40
2009,07,02,10,16,22.50
2009,07,02,10,17,22.50
2009,07,02,10,18,22.50
2009,07,02,10,19,22.60
2009,07,02,10,20,22.60
2009,07,02,10,21,22.60
2009,07,02,10,22,22.60
2009,07,02,10,23,22.60
2009,07,02,10,24,22.70
2009,07,02,10,25,22.70
2009,07,02,10,26,22.80
2009,07,02,10,27,22.90
2009,07,02,10,28,23.00
2009,07,02,10,29,23.00
2009,07,02,10,30,23.10
2009,07,02,10,31,23.20
2009,07,02,10,32,23.30
2009,07,02,10,33,23.40
2009,07,02,10,34,23.40
2009,07,02,10,35,23.40
2009,07,02,10,36,23.40
2009,07,02,10,37,23.30
2009,07,02,10,38,23.20
2009,07,02,10,39,23.10
2009,07,02,10,40,22.90
2009,07,02,10,41,22.80
2009,07,02,10,42,22.80
2009,07,02,10,43,22.80
2009,07,02,10,44,22.80
2009,07,02,10,45,22.70
2009,07,02,10,46,22.70
2009,07,02,10,47,22.70
2009,07,02,10,48,22.80
2009,07,02,10,49,22.80
2009,07,02,10,50,22.80
2009,07,02,10,51,22.90
2009,07,02,10,52,22.90
2009,07,02,10,53,22.90
2009,07,02,10,54,22.90
2009,07,02,10,55,22.90
2009,07,02,10,56,23.00
2009,07,02,10,57,23.10
2009,07,02,10,58,23.10
2009,07,02,10,59,23.10
2009,07,02,11,00,23.10
2009,07,02,11,01,23.00
2009,07,02,11,02,23.00
2009,07,02,11,03,23.10
2009,07,02,11,04,23.00
2009,07,02,11,05,23.00
2009,07,02,11,06,22.90
2009,07,02,11,07,22.90
2009,07,02,11,08,22.90
2009,07,02,11,09,22.90
2009,07,02,11,10,22.90
2009,07,02,11,11,22.90
2009,07,02,11,12,23.00
2009,07,02,11,13,23.00
2009,07,02,11,14,23.00
2009,07,02,11,15,23.00
2009,07,02,11,16,23.10
2009,07,02,11,17,23.10
2009,07,02,11,18,23.10
2009,07,02,11,19,23.20
2009,07,02,11,20,23.30
2009,07,02,11,21,23.30
2009,07,02,11,22,23.30
2009,07,02,11,23,23.30
2009,07,02,11,24,23.40
2009,07,02,11,25,23.50
2009,07,02,11,26,23.60
2009,07,02,11,27,23.70
2009,07,02,11,28,23.70
2009,07,02,11,29,23.70
2009,07,02,11,30,23.80
2009,07,02,11,31,23.80
2009,07,02,11,32,23.80
2009,07,02,11,33,23.80
2009,07,02,11,34,23.80
2009,07,02,11,35,23.80
2009,07,02,11,36,23.80
2009,07,02,11,37,23.80
2009,07,02,11,38,23.90
2009,07,02,11,39,23.90
2009,07,02,11,40,24.00
2009,07,02,11,41,24.00
2009,07,02,11,42,24.00
2009,07,02,11,43,24.00
2009,07,02,11,44,24.00
2009,07,02,11,45,24.10
2009,07,02,11,46,24.10
2009,07,02,11,47,24.10
2009,07,02,11,48,24.20
2009,07,02,11,49,24.30
2009,07,02,11,50,24.40
2009,07,02,11,51,24.50
2009,07,02,11,52,24.50
2009,07,02,11,53,24.40
2009,07,02,11,54,24.40
2009,07,02,11,55,24.40
2009,07,02,11,56,24.40
2009,07,02,11,57,24.30
2009,07,02,11,58,24.40
2009,07,02,11,59,24.40
2009,07,02,12,00,24.40
2009,07,02,12,01,24.50
2009,07,02,12,02,24.50
2009,07,02,12,03,24.50
2009,07,02,12,04,24.50
2009,07,02,12,05,24.40
2009,07,02,12,06,24.30
2009,07,02,12,07,24.30
2009,07,02,12,08,24.20
2009,07,02,12,09,24.20
2009,07,02,12,10,24.20
2009,07,02,12,11,24.00
2009,07,02,12,12,23.90
2009,07,02,12,13,23.90
2009,07,02,12,14,23.90
2009,07,02,12,15,23.90
2009,07,02,12,16,24.00
2009,07,02,12,17,24.10
2009,07,02,12,18,24.20
2009,07,02,12,19,24.40
2009,07,02,12,20,24.50
2009,07,02,12,21,24.50
2009,07,02,12,22,24.60
2009,07,02,12,23,24.50
2009,07,02,12,24,24.50
2009,07,02,12,25,24.50
2009,07,02,12,26,24.50
2009,07,02,12,27,24.40
2009,07,02,12,28,24.30
2009,07,02,12,29,24.30
2009,07,02,12,30,24.20
2009,07,02,12,31,24.20
2009,07,02,12,32,24.20
2009,07,02,12,33,24.20
2009,07,02,12,34,24.20
2009,07,02,12,35,24.30
2009,07,02,12,36,24.40
2009,07,02,12,37,24.40
2009,07,02,12,38,24.50
2009,07,02,12,39,24.40
2009,07,02,12,40,24.40
2009,07,02,12,41,24.40
2009,07,02,12,42,24.40
2009,07,02,12,43,24.40
2009,07,02,12,44,24.40
2009,07,02,12,45,24.40
2009,07,02,12,46,24.50
2009,07,02,12,47,24.60
2009,07,02,12,48,24.70
2009,07,02,12,49,24.70
2009,07,02,12,50,24.80
2009,07,02,12,51,24.80
2009,07,02,12,52,24.90
2009,07,02,12,53,24.90
2009,07,02,12,54,25.00
2009,07,02,12,55,24.90
2009,07,02,12,56,24.90
2009,07,02,12,57,24.90
2009,07,02,12,58,24.90
2009,07,02,12,59,24.90
2009,07,02,13,00,24.90
2009,07,02,13,01,24.80
2009,07,02,13,02,24.90
2009,07,02,13,03,24.90
2009,07,02,13,04,24.90
2009,07,02,13,05,24.80
2009,07,02,13,06,24.80
2009,07,02,13,07,24.80
2009,07,02,13,08,24.80
2009,07,02,13,09,24.70
2009,07,02,13,10,24.70
2009,07,02,13,11,24.80
2009,07,02,13,12,24.80
2009,07,02,13,13,24.80
2009,07,02,13,14,24.80
2009,07,02,13,15,24.90
2009,07,02,13,16,24.90
2009,07,02,13,17,24.90
2009,07,02,13,18,24.90
2009,07,02,13,19,24.90
2009,07,02,13,20,24.90
2009,07,02,13,21,25.00
2009,07,02,13,22,25.10
2009,07,02,13,23,25.20
2009,07,02,13,24,25.30
2009,07,02,13,25,25.40
2009,07,02,13,26,25.40
2009,07,02,13,27,25.50
2009,07,02,13,28,25.50
2009,07,02,13,29,25.60
2009,07,02,13,30,25.50
2009,07,02,13,31,25.50
2009,07,02,13,32,25.40
2009,07,02,13,33,25.40
2009,07,02,13,34,25.40
2009,07,02,13,35,25.40
2009,07,02,13,36,25.40
2009,07,02,13,37,25.30
2009,07,02,13,38,25.30
2009,07,02,13,39,25.30
2009,07,02,13,40,25.30
2009,07,02,13,41,25.30
2009,07,02,13,42,25.40
2009,07,02,13,43,25.40
2009,07,02,13,44,25.50
2009,07,02,13,45,25.50
2009,07,02,13,46,25.60
2009,07,02,13,47,25.70
2009,07,02,13,48,25.60
2009,07,02,13,49,25.30
2009,07,02,13,50,25.20
2009,07,02,13,51,25.10
2009,07,02,13,52,24.90
2009,07,02,13,53,24.80
2009,07,02,13,54,24.70
2009,07,02,13,55,24.50
2009,07,02,13,56,24.30
2009,07,02,13,57,24.10
2009,07,02,13,58,24.10
2009,07,02,13,59,24.10
2009,07,02,14,00,24.10
2009,07,02,14,01,24.20
2009,07,02,14,02,24.20
2009,07,02,14,03,24.20
2009,07,02,14,04,24.20
2009,07,02,14,05,24.20
2009,07,02,14,06,24.20
2009,07,02,14,07,24.20
2009,07,02,14,08,24.10
2009,07,02,14,09,24.10
2009,07,02,14,10,24.10
2009,07,02,14,11,24.00
2009,07,02,14,12,23.90
2009,07,02,14,13,23.80
2009,07,02,14,14,23.70
2009,07,02,14,15,23.50
2009,07,02,14,16,23.60
2009,07,02,14,17,23.60
2009,07,02,14,18,23.60
2009,07,02,14,19,23.50
2009,07,02,14,20,23.40
2009,07,02,14,21,23.30
2009,07,02,14,22,23.40
2009,07,02,14,23,23.40
2009,07,02,14,24,23.50
2009,07,02,14,25,23.60
2009,07,02,14,26,23.70
2009,07,02,14,27,23.70
2009,07,02,14,28,23.60
2009,07,02,14,29,23.60
2009,07,02,14,30,23.50
2009,07,02,14,31,23.40
2009,07,02,14,32,23.30
2009,07,02,14,33,23.20
2009,07,02,14,34,23.10
2009,07,02,14,35,23.10
2009,07,02,14,36,23.00
2009,07,02,14,37,23.00
2009,07,02,14,38,23.10
2009,07,02,14,39,23.10
2009,07,02,14,40,23.20
2009,07,02,14,41,23.30
2009,07,02,14,42,23.40
2009,07,02,14,43,23.50
2009,07,02,14,44,23.60
2009,07,02,14,45,23.70
2009,07,02,14,46,23.80
2009,07,02,14,47,23.90
2009,07,02,14,48,24.00
2009,07,02,14,49,24.00
2009,07,02,14,50,23.80
2009,07,02,14,51,23.80
2009,07,02,14,52,23.80
2009,07,02,14,53,23.80
2009,07,02,14,54,24.00
2009,07,02,14,55,24.00
2009,07,02,14,56,24.00
2009,07,02,14,57,24.00
2009,07,02,14,58,23.90
2009,07,02,14,59,23.80
2009,07,02,15,00,23.70
2009,07,02,15,01,23.60
2009,07,02,15,02,23.50
2009,07,02,15,03,23.40
2009,07,02,15,04,23.40
2009,07,02,15,05,23.30
2009,07,02,15,06,23.30
2009,07,02,15,07,23.20
2009,07,02,15,08,23.20
2009,07,02,15,09,23.10
2009,07,02,15,10,23.10
2009,07,02,15,11,23.10
2009,07,02,15,12,23.10
2009,07,02,15,13,23.10
2009,07,02,15,14,23.10
2009,07,02,15,15,23.20
2009,07,02,15,16,23.20
2009,07,02,15,17,23.30
2009,07,02,15,18,23.40
2009,07,02,15,19,23.40
2009,07,02,15,20,23.50
2009,07,02,15,21,23.50
2009,07,02,15,22,23.60
2009,07,02,15,23,23.70
2009,07,02,15,24,23.80
2009,07,02,15,25,23.90
2009,07,02,15,26,23.90
2009,07,02,15,27,23.90
2009,07,02,15,28,23.90
2009,07,02,15,29,23.90
2009,07,02,15,30,24.00
2009,07,02,15,31,24.00
2009,07,02,15,32,24.00
2009,07,02,15,33,24.00
2009,07,02,15,34,24.00
2009,07,02,15,35,24.00
2009,07,02,15,36,24.00
2009,07,02,15,37,24.10
2009,07,02,15,38,24.20
2009,07,02,15,39,24.20
2009,07,02,15,40,24.10
2009,07,02,15,41,24.00
2009,07,02,15,42,23.80
2009,07,02,15,43,23.80
2009,07,02,15,44,23.80
2009,07,02,15,45,23.90
2009,07,02,15,46,23.90
2009,07,02,15,47,23.90
2009,07,02,15,48,24.00
2009,07,02,15,49,24.10
2009,07,02,15,50,24.20
2009,07,02,15,51,24.30
2009,07,02,15,52,24.40
2009,07,02,15,53,24.50
2009,07,02,15,54,24.60
2009,07,02,15,55,24.70
2009,07,02,15,56,24.70
2009,07,02,15,57,24.70
2009,07,02,15,58,24.70
2009,07,02,15,59,24.70
2009,07,02,16,00,24.80
2009,07,02,16,01,24.80
2009,07,02,16,02,24.70
2009,07,02,16,03,24.60
2009,07,02,16,04,24.60
2009,07,02,16,05,24.60
2009,07,02,16,06,24.70
2009,07,02,16,07,24.80
2009,07,02,16,08,24.80
2009,07,02,16,09,24.90
2009,07,02,16,10,24.90
2009,07,02,16,11,25.00
2009,07,02,16,12,25.00
2009,07,02,16,13,25.00
2009,07,02,16,14,24.90
2009,07,02,16,15,24.90
2009,07,02,16,16,24.90
2009,07,02,16,17,24.80
2009,07,02,16,18,24.80
2009,07,02,16,19,24.80
2009,07,02,16,20,24.80
2009,07,02,16,21,24.80
2009,07,02,16,22,24.70
2009,07,02,16,23,24.70
2009,07,02,16,24,24.70
2009,07,02,16,25,24.70
2009,07,02,16,26,24.60
2009,07,02,16,27,24.60
2009,07,02,16,28,24.50
2009,07,02,16,29,24.40
2009,07,02,16,30,24.30
2009,07,02,16,31,24.30
2009,07,02,16,32,24.20
2009,07,02,16,33,24.30
2009,07,02,16,34,24.30
2009,07,02,16,35,24.30
2009,07,02,16,36,24.30
2009,07,02,16,37,24.40
2009,07,02,16,38,24.50
2009,07,02,16,39,24.50
2009,07,02,16,40,24.60
2009,07,02,16,41,24.70
2009,07,02,16,42,24.80
2009,07,02,16,43,24.80
2009,07,02,16,44,24.70
2009,07,02,16,45,24.60
2009,07,02,16,46,24.60
2009,07,02,16,47,24.60
2009,07,02,16,48,24.70
2009,07,02,16,49,24.70
2009,07,02,16,50,24.70
2009,07,02,16,51,24.70
2009,07,02,16,52,24.70
2009,07,02,16,53,24.70
2009,07,02,16,54,24.60
2009,07,02,16,55,24.50
2009,07,02,16,56,24.40
2009,07,02,16,57,24.40
2009,07,02,16,58,24.30
2009,07,02,16,59,24.30
2009,07,02,17,00,24.30
2009,07,02,17,01,24.40
2009,07,02,17,02,24.30
2009,07,02,17,03,24.30
2009,07,02,17,04,24.30
2009,07,02,17,05,24.30
2009,07,02,17,06,24.30
2009,07,02,17,07,24.30
2009,07,02,17,08,24.20
2009,07,02,17,09,24.20
2009,07,02,17,10,24.20
2009,07,02,17,11,24.30
2009,07,02,17,12,24.30
2009,07,02,17,13,24.30
2009,07,02,17,14,24.30
2009,07,02,17,15,24.40
2009,07,02,17,16,24.50
2009,07,02,17,17,24.50
2009,07,02,17,18,24.50
2009,07,02,17,19,24.40
2009,07,02,17,20,24.40
2009,07,02,17,21,24.40
2009,07,02,17,22,24.40
2009,07,02,17,23,24.50